map of PFO home
PFO - Airport
Location
City:  Paphos, Cyprus
Name:Paphos International Airport
ICAO:LCPH
IATA:PFO

Details
Type:Airport (Aerodrome, Airfield)
Use:Public/Civil, International (customs port of entry)
Latitude:3443'05"N (34.718039)
Longitude:3229'09"E (32.485731)
Datum:WGS 1984
Elevation:41 ft (12 m)
Variation:5.03E (WMM2015v2 magnetic declination)
0.09 annual change
Runways:1
Longest:8858 × 148 ft (2700 × 45 m), paved

Time
Time Zone:UTC+2 (DST+3)
Local Time:

Weather
METAR:LCPH 041400Z 11007KT CAVOK 20/09 Q1018
TAF:LCPH 041130Z 0412/0512 15016KT CAVOK
BECMG 0418/0421 08010KT
BECMG 0506/0510 14018KT

Related Locations
Nearby:
Farthest:RVV: 11684 mi / 18803 km
Raivavae, Tubuai Islands, Austral Islands, PF

Find:

   beyond  
but within

Other Information
Maps:
NOTAMs:
Links:
Sources:

  
  • flag of Cyprus
  

Sectional Chart

Flight Planning
at skyvector.com

Satellite Image

Google Maps Satellite view

 

Copyright © 2004-2019 Karl L. Swartz. All rights reserved.
The Great Circle Mapper name and logo are trademarks of the Great Circle Mapper.
All other trademarks mentioned herein belong to their respective owners.
Please see credits for attibutions and further copyright information.

  Follow gcmap on Facebook Follow gcmap on Twitter GCmap on LinkedIn

hCard Microformat

Geo Microformat